User: anonymous   Login
Location: Codford Saint Peter
(51.1597°N, 2.0531°W)
Time: 01:32:35
(UTC+00:00)
Language:

Cosmos 1544 - Orbit

View from above orbital plane
View from above orbital plane
View from above satellite
View from above satellite

Ground track
Ground track

The orbit data is extracted from the following two-line orbital elements,

1 14819U 84027A   22330.07012337  .00008284  00000-0  24065-3 0  9999
2 14819  82.4783 181.7749 0009342 214.6008 145.4628 15.35267478119170
Epoch (UTC): 26 November 2022 01:40:58
Eccentricity: 0.0009342
inclination: 82.4783°
perigee height: 454 km
apogee height: 466 km
right ascension of ascending node: 181.7749°
argument of perigee: 214.6008°
revolutions per day: 15.35267478
mean anomaly at epoch: 145.4628°
orbit number at epoch: 11917

The dashed part of the orbit path shows where the satellite is in the earth's shadow,  

DLR